Miscellaneous Local Product
Issued by NWS North Platte, NE

Home | Current Version | Previous Version | Text Only | Print | Product List | Glossary On
Versions: 1 2 3 4 5 6 7 8 9 10 11 12 13 14 15 16 17 18 19 20 21 22 23 24 25 26 27 28 29 30 31 32 33 34 35 36 37 38 39 40 41 42 43 44 45 46 47 48 49 50
000
AXUS43 KLBF 211810
MISLBF


WESTERN AND NORTH CENTRAL NEBRASKA HOURLY WEATHER ROUNDUP
NATIONAL WEATHER SERVICE NORTH PLATTE NE
1200 PM CST SUN JAN 21 2018

NOTE: "FAIR" INDICATES FEW OR NO CLOUDS BELOW 12,000 FEET WITH NO
SIGNIFICANT WEATHER AND/OR OBSTRUCTIONS TO VISIBILITY.

NOTE: STATIONS NOT REPORTING VARIABLES SUCH AS SKY/WEATHER OR
PRESSURE ARE PROVIDED BY RAWS AND APRS NETWORKS AND ARE NOT UNDER
NATIONAL WEATHER SERVICE QUALITY CONTROL.

...OBSERVATIONS IN AND NEAR THE EASTERN PANHANDLE OF NEBRASKA...

CITY           SKY/WX    TMP DP  RH WIND       PRES   REMARKS
PINE RIDGE     LGT SNOW  31  28  89 N8        29.98F FOG     WCI  23
GORDON         LGT SNOW  30  27  88 N17G24    29.94F WCI  18
CHADRON        LGT SNOW  30  27  88 N17       29.99F FOG     WCI  18
ALLIANCE       SNOW      27  27 100 N21G28    29.89F VSB 1/2 WCI  13
SIDNEY         LGT SNOW  29  27  92 N17       29.84S VSB 1   WCI  17
CRESCENT LAKE    N/A     28  27  97 N16G26      N/A  WCI  16
$$

...OBSERVATIONS IN NORTHERN NEBRASKA AND FAR SOUTHERN SOUTH DAKOTA...

CITY           SKY/WX    TMP DP  RH WIND       PRES   REMARKS
WINNER         LGT SNOW  34  32  92 N14       29.99F VSB 1   WCI  25
VALENTINE      LGT SNOW  34  30  85 N14       29.95F FOG     WCI  25
AINSWORTH      CLOUDY    33  32  98 N16G22    29.93F WCI  22
O`NEILL        PTSUNNY   37  33  87 N20G25    29.92F WCI  26
THEDFORD       LGT SNOW  33  32  96 NE21G28   29.86F WCI  21
BROKEN BOW     CLOUDY    34  28  79 N21G31    29.79F WCI  22
ORD            CLOUDY    35  30  82 N23G31    29.81F WCI  23
ALBION         CLOUDY    35  31  85 N18       29.83F FOG     WCI  24
VALENTINE NWR    N/A     50  30  46 N9G20       N/A
HALSEY           N/A     33  29  86 NE9G20      N/A  WCI  25
BUTTE            N/A     33  30  90 N15         N/A  WCI  23
CHAMBERS         N/A     35  31  84 N5          N/A  WCI  31
EWING            N/A     37  31  79 NE5         N/A  WCI  33
$$

...OBSERVATIONS IN SOUTHWEST NEBRASKA AND FAR NORTHEAST COLORADO...

CITY           SKY/WX    TMP DP  RH WIND       PRES   REMARKS
WRAY           MIX PCPN  32  32 100 N18G29    29.78F WCI  20
HOLYOKE        LGT SNOW  34  30  86 N18G25    29.81S WCI  23
IMPERIAL       MIX PCPN  31  29  92 N21G28    29.77F WCI  18
OGALLALA       LGT SNOW  33  31  91 NE22      29.82F WCI  21
NORTH PLATTE   CLOUDY    34  27  75 NE23G37   29.80F WCI  22
MCCOOK         CLOUDY    33  32  96 N23G32    29.71F WCI  21
LEXINGTON      CLOUDY    34  32  92 N21G28    29.75F WCI  22
STAPLETON        N/A     31  28  89 NE8G20      N/A  WCI  24
GOTHENBURG       N/A     32  28  85 N14         N/A  WCI  22
CALLAWAY         N/A     31  29  91 NE13        N/A  WCI  21
$$

...OBSERVATIONS IN CENTRAL LINCOLN COUNTY AREA...

CITY           SKY/WX    TMP DP  RH WIND       PRES   REMARKS
N.P. AIRPORT   CLOUDY    34  27  75 NE23G37   29.80F WCI  22
N.P. DOWNTOWN    N/A     33  29  85 NE14G22     N/A  WCI  23
N.P. SOUTHEAST   N/A     33  28  83 N10G21      N/A  WCI  25
N.P. HILLCREST   N/A     33  29  86 NE28G44     N/A  WCI  19
$$

...SOME OBSERVATIONS FROM AROUND THE REGION...

CITY           SKY/WX    TMP DP  RH WIND       PRES   REMARKS
DENVER         SNOW      25  22  88 N20G29    29.83S VSB 1/2 WCI  11
BERTHOUD PASS  LGT SNOW   1  -9  60 E12G23    29.63R VSB 3/4 WCI -15
GRAND JUNCTION CLOUDY    29  26  89 NW12      29.96R WCI  19
LARAMIE        LGT SNOW  18  15  88 N10       29.85R VSB 3/4 WCI   6
CHEYENNE       LGT SNOW  21  19  92 N20G26    29.86R VSB 3/4 WCI   6
CASPER         CLOUDY    23  20  88 NW5       30.01R WCI  17
BISMARCK       CLOUDY    23  19  85 W3        30.07F
RAPID CITY     CLOUDY    33  24  69 N12       30.01S WCI  24
SIOUX FALLS    CLOUDY    39  32  76 NE15      29.95S WCI  31
OMAHA          LGT RAIN  40  39  97 N10       29.77F FOG     WCI  33
GRAND ISLAND   LGT RAIN  34  34 100 NE21      29.75F FOG     WCI  22
SCOTTSBLUFF    LGT SNOW  29  26  89 N21       29.92S FOG     WCI  16
KANSAS CITY    CLOUDY    58  51  78 S9        29.74F
HILL CITY      LGT RAIN  36  36 100 NE10      29.71F VSB 1/2 WCI  28
WICHITA        CLOUDY    58  48  69 S20G31    29.69F
DODGE CITY     CLOUDY    36  34  92 N6        29.68F FOG     WCI  31
OKLAHOMA CITY  CLOUDY    62  53  72 S23G35    29.76F
DALLAS         CLOUDY    74  61  63 S24G33    29.84F
AMARILLO       SUNNY     53  14  21 W30G37    29.73F
$$




USA.gov is the U.S. government's official web portal to all federal, state and local government web resources and services.